Regional Weather Roundup
Issued by NWS

Home | Current Version | Previous Version | Graphics & Text | Print | Product List | Glossary On
Versions: 1 2 3 4 5 6 7 8 9 10 11 12 13 14 15 16 17 18 19 20 21 22 23 24 25 26 27 28 29 30 31 32 33 34 35 36 37 38 39 40 41 42 43 44 45 46 47 48 49 50
000
ASUS43 KFSD 220302
RWRSD

WEATHER ROUNDUP FOR SOUTH DAKOTA
NATIONAL WEATHER SERVICE SIOUX FALLS SD
1000 PM CDT THU SEP 21 2017

NOTE: "FAIR" INDICATES FEW OR NO CLOUDS BELOW 12,000 FEET WITH NO
SIGNIFICANT WEATHER AND/OR OBSTRUCTIONS TO VISIBILITY.


SDZ001>005-009-010-012>017-220400-
NORTHWEST AND NORTH CENTRAL SOUTH DAKOTA

CITY           SKY/WX    TMP DP  RH WIND       PRES   REMARKS
BUFFALO          N/A     56  35  45 N21G26    29.76R
FAITH            N/A     61  42  49 N21       29.74R
MOBRIDGE       CLEAR     69  52  54 N18       29.68R
$$

SDZ012>016-024>037-041>051-057-063-072>074-220400-
SOUTHWEST AND SOUTH CENTRAL SOUTH DAKOTA

CITY           SKY/WX    TMP DP  RH WIND       PRES   REMARKS
RAPID CTY ARPT NOT AVBL
PIERRE         CLEAR     69  54  58 NE6       29.62S
CUSTER         CLEAR     55  35  47 NE10      29.82S
ELLSWORTH AFB  CLEAR     62  39  43 N16       29.76R
PHILIP         CLEAR     70  48  45 N22       29.64S
PINE RIDGE     CLEAR     70  40  33 N17       29.66S
SPEARFISH      FAIR      54  39  58 CALM      29.84R
WINNER         FAIR      68  59  73 E7        29.63S
$$

SDZ004>011-016>023-039-040-220400-
NORTHEAST SOUTH DAKOTA

CITY           SKY/WX    TMP DP  RH WIND       PRES   REMARKS
ABERDEEN       CLEAR     67  65  93 SE8       29.68S
WATERTOWN      CLEAR     74  68  81 E3        29.72R
BROOKINGS      CLEAR     75  71  87 SE9       29.73R
SISSETON         N/A     70  69  97 CALM      29.70S
$$

SDZ017-020-022-023-036>040-048>070-220400-
SOUTHEAST SOUTH DAKOTA

CITY           SKY/WX    TMP DP  RH WIND       PRES   REMARKS
SIOUX FALLS    CLEAR     81  73  76 S13       29.72R
HURON          CLEAR     75  68  78 SE9       29.65S
CHAMBERLAIN    CLEAR     75  64  70 E8        29.64R
MITCHELL       CLEAR     80  71  74 SE12      29.65S
YANKTON        CLEAR     82  72  71 S16G23    29.68S
$$

ABBREVIATIONS USED IN REMARKS
   TC - TEMPERATURE IN CELSIUS
  WCI - WIND CHILL INDEX
   HX - HEAT INDEX
  VSB - VISIBILITY




USA.gov is the U.S. government's official web portal to all federal, state and local government web resources and services.